KX4BE Weather Reports


Display with metric or nautical units.
time (UTC)temp
F
wind
direction
speed
MPH
gust
MPH
rain 1hr
in
rain 24hr
in
rain mn
in
humidity
%
barometer
mb
20260505170900 76 178 2.0 12.0 0.00 0.00 0.00 54 1016.8
20260505170340 76 203 5.0 11.0 0.00 0.00 0.00 52 1016.8
20260505165853 77 159 5.0 8.0 0.00 0.00 0.00 52 1017.0
20260505165351 77 76 2.0 12.0 0.00 0.00 0.00 52 1016.9
20260505164846 77 163 3.0 9.0 0.00 0.00 0.00 53 1017.0
20260505164342 77 22 3.0 9.0 0.00 0.00 0.00 54 1017.0
20260505163901 77 200 4.0 9.0 0.00 0.00 0.00 54 1017.0
20260505163340 76 254 4.0 8.0 0.00 0.00 0.00 56 1017.1
20260505162834 75 142 3.0 7.0 0.00 0.00 0.00 57 1017.2
20260505162335 74 46 1.0 8.0 0.00 0.00 0.00 59 1017.3
20260505161834 74 201 1.0 8.0 0.00 0.00 0.00 61 1017.3
20260505161333 74 167 2.0 6.0 0.00 0.00 0.00 59 1017.2
20260505160910 74 238 1.0 6.0 0.00 0.00 0.00 59 1017.2
20260505160351 74 210 3.0 6.0 0.00 0.00 0.00 59 1017.2
20260505153344 72 190 4.0 8.0 0.00 0.00 0.00 61 1017.5
20260505152837 71 219 2.0 10.0 0.00 0.00 0.00 64 1017.5
20260505152336 71 253 2.0 10.0 0.00 0.00 0.00 62 1017.6
20260505151833 71 140 1.0 9.0 0.00 0.00 0.00 62 1017.5
20260505151332 71 223 5.0 9.0 0.00 0.00 0.00 61 1017.5
20260505150850 71 182 2.0 11.0 0.00 0.00 0.00 63 1017.5
20260505150408 70 166 4.0 11.0 0.00 0.00 0.00 62 1017.5
20260505140343 67 224 3.0 10.0 0.00 0.00 0.00 67 1017.2
20260505124833 61 142 1.0 3.0 0.00 0.00 0.00 74 1017.3
20260505124333 61 328 0.0 1.0 0.00 0.00 0.00 76 1017.3
20260505123830 61 328 1.0 1.0 0.00 0.00 0.00 77 1017.0
20260505123350 60 328 0.0 1.0 0.00 0.00 0.00 76 1017.0
20260505122846 60 328 1.0 1.0 0.00 0.00 0.00 77 1016.9
20260505122346 60 328 0.0 1.0 0.00 0.00 0.00 77 1016.9
20260505121842 60 328 0.0 2.0 0.00 0.00 0.00 78 1016.8
20260505121343 60 328 1.0 2.0 0.00 0.00 0.00 78 1016.7
20260505120840 60 328 0.0 2.0 0.00 0.00 0.00 78 1016.8
20260505120342 59 328 0.0 2.0 0.00 0.00 0.00 80 1016.8
20260505115836 58 328 0.0 0.0 0.00 0.00 0.00 80 1016.7
20260505115336 58 328 0.0 0.0 0.00 0.00 0.00 81 1016.6
20260505114834 57 328 0.0 0.0 0.00 0.00 0.00 80 1016.5
20260505114352 57 328 0.0 0.0 0.00 0.00 0.00 81 1016.4
20260505113832 56 328 0.0 0.0 0.00 0.00 0.00 81 1016.4
20260505113354 56 328 0.0 0.0 0.00 0.00 0.00 81 1016.4
20260505112837 55 328 0.0 0.0 0.00 0.00 0.00 82 1016.3
20260505112357 55 328 0.0 1.0 0.00 0.00 0.00 82 1016.2
20260505111832 55 328 0.0 3.0 0.00 0.00 0.00 82 1016.2
20260505111351 54 328 1.0 3.0 0.00 0.00 0.00 82 1016.2
20260505110848 54 321 1.0 2.0 0.00 0.00 0.00 82 1016.1
20260505110348 54 318 0.0 2.0 0.00 0.00 0.00 82 1016.0
20260505101845 55 205 0.0 1.0 0.00 0.00 0.00 80 1015.7
20260505101345 55 205 0.0 1.0 0.00 0.00 0.00 79 1015.6
20260505100847 55 205 0.0 1.0 0.00 0.00 0.00 79 1015.6
20260505100345 55 205 0.0 0.0 0.00 0.00 0.00 78 1015.6
20260505095838 55 205 0.0 1.0 0.00 0.00 0.00 78 1015.5
20260505095339 55 205 1.0 1.0 0.00 0.00 0.00 79 1015.4
20260505094835 56 205 0.0 2.0 0.00 0.00 0.00 77 1015.3
20260505094355 56 205 1.0 2.0 0.00 0.00 0.00 77 1015.2
20260505093832 56 205 1.0 2.0 0.00 0.00 0.00 76 1015.4
20260505093353 56 205 1.0 2.0 0.00 0.00 0.00 75 1015.4
20260505092845 56 205 0.0 2.0 0.00 0.00 0.00 75 1015.5
20260505092344 56 206 1.0 3.0 0.00 0.00 0.00 74 1015.7
20260505091843 56 206 1.0 3.0 0.00 0.00 0.00 74 1015.5
20260505091402 56 243 1.0 2.0 0.00 0.00 0.00 74 1015.4
20260505090838 57 203 1.0 2.0 0.00 0.00 0.00 75 1015.5
20260505090339 57 203 0.0 2.0 0.00 0.00 0.00 74 1015.3
20260505085832 57 203 1.0 3.0 0.00 0.00 0.00 74 1015.3
20260505085332 57 203 1.0 3.0 0.00 0.00 0.00 74 1015.3
20260505084834 58 160 1.0 3.0 0.00 0.00 0.00 74 1015.3
20260505084333 58 160 2.0 3.0 0.00 0.00 0.00 72 1015.3
20260505083831 59 197 1.0 3.0 0.00 0.00 0.00 72 1015.3
20260505083412 59 189 1.0 4.0 0.00 0.00 0.00 71 1015.3
20260505082843 59 188 2.0 7.0 0.00 0.00 0.00 71 1015.4
20260505082400 58 206 2.0 7.0 0.00 0.00 0.00 70 1015.5
20260505081838 58 192 1.0 3.0 0.00 0.00 0.00 71 1015.5
20260505081337 58 203 1.0 4.0 0.00 0.00 0.00 73 1015.6
20260505080855 57 229 2.0 5.0 0.00 0.00 0.00 74 1015.5
20260505080334 57 254 2.0 5.0 0.00 0.00 0.00 74 1015.5
20260505075849 57 230 1.0 2.0 0.00 0.00 0.00 74 1015.6
20260505075349 57 230 1.0 2.0 0.00 0.00 0.00 74 1015.6
20260505074845 58 230 1.0 2.0 0.00 0.00 0.00 74 1015.7
20260505074344 58 232 1.0 2.0 0.00 0.00 0.00 74 1015.6
20260505073842 58 232 1.0 3.0 0.00 0.00 0.00 73 1015.6
20260505073343 58 232 1.0 4.0 0.00 0.00 0.00 73 1015.5
20260505072837 58 239 1.0 2.0 0.00 0.00 0.00 72 1015.6
20260505072357 59 239 1.0 3.0 0.00 0.00 0.00 72 1015.6
20260505071831 59 259 1.0 3.0 0.00 0.00 0.00 71 1015.7
20260505071335 59 136 1.0 2.0 0.00 0.00 0.00 70 1015.6
20260505070831 60 317 1.0 3.0 0.00 0.00 0.00 70 1015.6
20260505070352 60 184 0.0 2.0 0.00 0.00 0.00 70 1015.7
20260505065845 61 200 0.0 4.0 0.00 0.00 0.00 68 1015.6
20260505065345 61 200 1.0 4.0 0.00 0.00 0.00 67 1015.6
20260505064841 61 261 1.0 5.0 0.00 0.00 0.00 65 1015.6
20260505064337 62 188 1.0 5.0 0.00 0.00 0.00 65 1015.7
20260505063835 62 227 1.0 5.0 0.00 0.00 0.00 64 1015.8
20260505063336 62 221 1.0 6.0 0.00 0.00 0.00 64 1015.8
20260505062832 62 238 2.0 6.0 0.00 0.00 0.00 65 1015.8
20260505062332 62 248 2.0 6.0 0.00 0.00 0.00 64 1015.8
20260505061831 62 253 2.0 6.0 0.00 0.00 0.00 64 1015.8
20260505061351 62 234 1.0 6.0 0.00 0.00 0.00 63 1015.9
20260505060846 62 200 2.0 4.0 0.00 0.00 0.00 63 1015.8
20260505060347 62 209 2.0 4.0 0.00 0.00 0.00 63 1015.8
20260505055846 63 196 3.0 5.0 0.00 0.00 0.00 62 1015.7
20260505055347 63 181 3.0 7.0 0.00 0.00 0.00 62 1015.9
20260505054845 63 192 2.0 7.0 0.00 0.00 0.00 61 1015.8
20260505054345 63 224 3.0 6.0 0.00 0.00 0.00 61 1015.8
20260505053840 63 200 3.0 9.0 0.00 0.00 0.00 61 1015.8
20260505053340 63 200 3.0 9.0 0.00 0.00 0.00 61 1015.9
20260505052836 63 198 2.0 5.0 0.00 0.00 0.00 61 1015.9
20260505052336 63 199 2.0 5.0 0.00 0.00 0.00 62 1015.9
20260505051835 63 218 2.0 5.0 0.00 0.00 0.00 61 1015.8
20260505051334 63 239 2.0 5.0 0.00 0.00 0.00 62 1015.7
20260505050832 63 239 2.0 7.0 0.00 0.00 0.00 61 1015.6
20260505050350 63 213 2.0 7.0 0.00 0.00 0.00 61 1015.8
20260505041353 63 196 1.0 4.0 0.00 0.00 0.00 61 1015.7
20260505040848 63 200 1.0 3.0 0.00 0.00 0.00 61 1015.8
20260505040349 64 182 1.0 2.0 0.00 0.00 0.00 61 1015.6
20260505035842 64 186 0.0 3.0 0.00 0.00 0.00 59 1015.8
20260505035403 65 186 1.0 4.0 0.00 0.00 0.00 58 1015.8
20260505034840 65 186 1.0 4.0 0.00 0.00 0.00 57 1015.8
20260505034341 66 216 0.0 3.0 0.00 0.00 0.00 56 1015.8
20260505033840 66 211 1.0 3.0 0.00 0.00 0.00 55 1015.8
20260505033336 66 211 1.0 5.0 0.00 0.00 0.00 54 1015.8
20260505032849 66 209 2.0 6.0 0.00 0.00 0.00 54 1015.8
20260505032348 67 212 1.0 6.0 0.00 0.00 0.00 54 1015.8
20260505031831 67 236 1.0 4.0 0.00 0.00 0.00 54 1015.7
20260505031330 67 259 1.0 8.0 0.00 0.00 0.00 54 1015.8
20260505030847 67 223 1.0 8.0 0.00 0.00 0.00 53 1015.6
20260505030347 67 196 1.0 5.0 0.00 0.00 0.00 53 1015.6
20260505025840 68 202 1.0 5.0 0.00 0.00 0.00 53 1015.8
20260505025359 68 217 1.0 9.0 0.00 0.00 0.00 52 1015.7
20260505024833 68 289 1.0 9.0 0.00 0.00 0.00 52 1015.8
20260505024334 68 211 2.0 0.0 0.00 0.00 0.00 52 1015.5
20260505023831 68 248 3.0 8.0 0.00 0.00 0.00 51 1015.8
20260505023412 68 191 2.0 7.0 0.00 0.00 0.00 52 1015.9
20260505022846 68 198 3.0 8.0 0.00 0.00 0.00 51 1015.9
20260505022346 68 186 3.0 9.0 0.00 0.00 0.00 52 1015.9
20260505021845 68 178 2.0 7.0 0.00 0.00 0.00 53 1015.9
20260505021345 68 160 3.0 6.0 0.00 0.00 0.00 53 1015.8
20260505020841 68 207 3.0 6.0 0.00 0.00 0.00 53 1015.8
20260505020343 68 187 2.0 6.0 0.00 0.00 0.00 54 1015.6
20260505015838 68 178 3.0 6.0 0.00 0.00 0.00 53 1015.6
20260505015343 68 217 3.0 6.0 0.00 0.00 0.00 54 1015.6
20260505014838 68 190 2.0 7.0 0.00 0.00 0.00 55 1015.6
20260505014338 68 191 1.0 6.0 0.00 0.00 0.00 55 1015.6
20260505013856 68 196 2.0 7.0 0.00 0.00 0.00 55 1015.6
20260505013336 68 207 3.0 7.0 0.00 0.00 0.00 55 1015.5
20260505012831 68 198 1.0 9.0 0.00 0.00 0.00 57 1015.6
20260505012330 68 159 4.0 10.0 0.00 0.00 0.00 59 1015.5
20260505011850 68 186 2.0 5.0 0.00 0.00 0.00 60 1015.5
20260505011347 68 184 3.0 5.0 0.00 0.00 0.00 60 1015.4
20260505010845 68 169 1.0 5.0 0.00 0.00 0.00 59 1015.4
20260505010406 69 223 1.0 9.0 0.00 0.00 0.00 58 1015.4
20260505005839 69 239 1.0 9.0 0.00 0.00 0.00 58 1015.3
20260505005339 69 173 2.0 4.0 0.00 0.00 0.00 57 1015.1
20260505004838 69 226 1.0 4.0 0.00 0.00 0.00 56 1015.2
20260505004338 70 117 1.0 5.0 0.00 0.00 0.00 56 1015.2
20260505003855 70 192 3.0 5.0 0.00 0.00 0.00 56 1015.1
20260505003354 71 211 1.0 9.0 0.00 0.00 0.00 55 1015.1
20260505002848 71 178 2.0 9.0 0.00 0.00 0.00 54 1015.1
20260505002332 71 211 2.0 8.0 0.00 0.00 0.00 55 1015.0
20260505001331 71 171 1.0 10.0 0.00 0.00 0.00 54 1015.0
20260505000828 72 178 1.0 8.0 0.00 0.00 0.00 54 1015.0
20260505000351 72 211 4.0 8.0 0.00 0.00 0.00 53 1014.8
20260504235841 72 146 3.0 8.0 0.00 0.00 0.00 53 1014.9
20260504235402 72 205 2.0 8.0 0.00 0.00 0.00 52 1015.0
20260504234838 73 175 3.0 10.0 0.00 0.00 0.00 53 1015.0
20260504234337 73 202 6.0 11.0 0.00 0.00 0.00 52 1014.9
20260504233835 73 212 3.0 9.0 0.00 0.00 0.00 53 1014.9
20260504233333 73 179 3.0 9.0 0.00 0.00 0.00 53 1014.9
20260504232829 74 223 4.0 12.0 0.00 0.00 0.00 53 1014.9
20260504232330 74 141 3.0 10.0 0.00 0.00 0.00 53 1014.9
20260504231848 74 221 6.0 10.0 0.00 0.00 0.00 52 1015.0
20260504231349 75 182 3.0 10.0 0.00 0.00 0.00 51 1015.0
20260504230831 75 217 4.0 9.0 0.00 0.00 0.00 49 1015.1
20260504230350 75 186 2.0 11.0 0.00 0.00 0.00 47 1015.0
20260504225841 75 207 5.0 11.0 0.00 0.00 0.00 45 1015.0
20260504225341 75 163 5.0 10.0 0.00 0.00 0.00 45 1015.0
20260504224858 76 232 4.0 10.0 0.00 0.00 0.00 48 1015.1
20260504224338 76 205 4.0 11.0 0.00 0.00 0.00 48 1015.0
20260504223837 76 216 5.0 11.0 0.00 0.00 0.00 48 1015.0
20260504223338 76 140 3.0 14.0 0.00 0.00 0.00 48 1015.0
20260504222828 77 215 3.0 14.0 0.00 0.00 0.00 48 1014.9
20260504222330 77 160 3.0 11.0 0.00 0.00 0.00 49 1014.9
20260504221828 77 183 5.0 17.0 0.00 0.00 0.00 48 1014.9
20260504221349 78 229 2.0 17.0 0.00 0.00 0.00 50 1015.0
20260504220906 78 161 5.0 10.0 0.00 0.00 0.00 49 1014.9
20260504220347 78 229 3.0 11.0 0.00 0.00 0.00 47 1014.9
20260504215841 78 248 2.0 12.0 0.00 0.00 0.00 45 1014.9
20260504215339 78 134 3.0 12.0 0.00 0.00 0.00 46 1014.9
20260504214835 78 160 7.0 12.0 0.00 0.00 0.00 44 1014.8
20260504214335 78 218 4.0 10.0 0.00 0.00 0.00 47 1014.8
20260504213855 78 229 3.0 9.0 0.00 0.00 0.00 48 1014.8
20260504213338 78 190 4.0 9.0 0.00 0.00 0.00 47 1014.8
20260504212852 79 202 2.0 7.0 0.00 0.00 0.00 48 1014.8
20260504212332 78 185 3.0 10.0 0.00 0.00 0.00 48 1014.8
20260504211847 78 184 3.0 10.0 0.00 0.00 0.00 47 1014.9
20260504211347 78 191 6.0 10.0 0.00 0.00 0.00 47 1015.0
20260504210844 79 242 3.0 9.0 0.00 0.00 0.00 47 1015.0
20260504210404 79 194 4.0 9.0 0.00 0.00 0.00 46 1014.9
20260504205858 80 224 2.0 11.0 0.00 0.00 0.00 47 1015.1
20260504205337 80 200 3.0 11.0 0.00 0.00 0.00 47 1015.1
20260504204834 80 144 2.0 9.0 0.00 0.00 0.00 46 1015.1
20260504204355 80 202 1.0 9.0 0.00 0.00 0.00 49 1015.2
20260504203830 80 216 2.0 9.0 0.00 0.00 0.00 49 1015.1
20260504203350 79 202 3.0 9.0 0.00 0.00 0.00 47 1015.1
20260504202844 79 188 4.0 10.0 0.00 0.00 0.00 48 1015.3
20260504202343 79 232 3.0 10.0 0.00 0.00 0.00 48 1015.3
20260504201841 79 211 3.0 14.0 0.00 0.00 0.00 47 1015.4
20260504201336 79 127 5.0 14.0 0.00 0.00 0.00 47 1015.5
20260504200855 79 198 3.0 9.0 0.00 0.00 0.00 48 1015.5
20260504200336 79 198 2.0 7.0 0.00 0.00 0.00 49 1015.5
20260504195832 78 206 1.0 7.0 0.00 0.00 0.00 49 1015.6
20260504195335 79 230 3.0 10.0 0.00 0.00 0.00 48 1015.8
20260504194833 79 221 5.0 10.0 0.00 0.00 0.00 48 1015.8
20260504194333 79 277 2.0 9.0 0.00 0.00 0.00 47 1015.9
20260504193848 79 217 4.0 9.0 0.00 0.00 0.00 47 1016.0
20260504193349 78 201 2.0 4.0 0.00 0.00 0.00 49 1016.1
20260504192839 79 340 1.0 4.0 0.00 0.00 0.00 49 1016.1
20260504192340 78 205 1.0 5.0 0.00 0.00 0.00 50 1016.2
20260504191839 78 209 2.0 5.0 0.00 0.00 0.00 53 1016.4
20260504191339 78 178 2.0 4.0 0.00 0.00 0.00 51 1016.4
20260504190835 78 162 1.0 9.0 0.00 0.00 0.00 52 1016.7
20260504190335 78 275 3.0 9.0 0.00 0.00 0.00 49 1016.8
20260504185849 78 19 1.0 7.0 0.00 0.00 0.00 49 1016.8
20260504185408 78 195 3.0 8.0 0.00 0.00 0.00 49 1016.8
20260504184845 78 228 4.0 7.0 0.00 0.00 0.00 49 1016.8
20260504184345 78 178 1.0 7.0 0.00 0.00 0.00 51 1016.8
20260504183843 78 205 3.0 10.0 0.00 0.00 0.00 49 1016.8
20260504183341 78 159 4.0 10.0 0.00 0.00 0.00 49 1016.9
20260504182841 78 163 1.0 10.0 0.00 0.00 0.00 50 1016.9
20260504182342 78 157 3.0 10.0 0.00 0.00 0.00 49 1016.9
20260504181837 77 169 1.0 9.0 0.00 0.00 0.00 50 1017.1
20260504181357 77 179 4.0 9.0 0.00 0.00 0.00 50 1017.1
20260504180835 77 205 2.0 13.0 0.00 0.00 0.00 49 1017.2
20260504180356 77 161 6.0 13.0 0.00 0.00 0.00 49 1017.2
20260504175847 77 236 2.0 9.0 0.00 0.00 0.00 51 1017.3
20260504175407 77 234 3.0 9.0 0.00 0.00 0.00 49 1017.3
20260504174843 77 186 2.0 5.0 0.00 0.00 0.00 52 1017.4
20260504174342 77 325 2.0 7.0 0.00 0.00 0.00 50 1017.5
20260504173840 77 218 3.0 7.0 0.00 0.00 0.00 49 1017.5
20260504173340 76 217 2.0 8.0 0.00 0.00 0.00 51 1017.5
20260504172832 76 324 3.0 8.0 0.00 0.00 0.00 55 1017.5
20260504172332 76 185 3.0 8.0 0.00 0.00 0.00 49 1017.6
20260504171831 76 326 2.0 9.0 0.00 0.00 0.00 51 1017.7
20260504171331 76 199 4.0 9.0 0.00 0.00 0.00 50 1017.8